This is the latest recevied weather packets stored in our database for station/object IA5FYI-13. If no packets are shown the sender has not sent any weather packets the latest 10 day(s).
| Time | Temp. | Humidity | Pressure | Rain* | Wind** | Luminosity | Snow |
|---|---|---|---|---|---|---|---|
| 1778040614 | 17.22° C | 92% | 1008.1 hPa | 6.1 mm | - | - | - |
| 1778040310 | 17.22° C | 92% | 1007.8 hPa | 1.52 mm | - | - | - |
| 1778040034 | 17.22° C | 93% | 1008.1 hPa | 12.45 mm | - | - | - |
| 1778039709 | 17.22° C | 93% | 1007.8 hPa | 9.65 mm | - | - | - |
| 1778039413 | 17.22° C | 93% | 1008.1 hPa | 9.65 mm | - | - | - |
| 1778039112 | 17.22° C | 93% | 1007.8 hPa | 8.38 mm | - | - | - |
| 1778038813 | 17.22° C | 94% | 1007.8 hPa | 8.38 mm | - | - | - |
| 1778038509 | 17.22° C | 94% | 1007.8 hPa | 7.62 mm | - | - | - |
| 1778038222 | 17.22° C | 93% | 1008.1 hPa | 7.11 mm | - | - | - |
| 1778037910 | 17.22° C | 93% | 1008.1 hPa | 4.57 mm | - | - | - |
| 1778037613 | 17.22° C | 93% | 1007.5 hPa | 2.79 mm | - | - | - |
| 1778037313 | 17.22° C | 93% | 1007.8 hPa | 2.54 mm | - | - | - |
| 1778037014 | 17.22° C | 93% | 1007.8 hPa | 1.02 mm | - | - | - |
| 1778036709 | 17.22° C | 93% | 1007.8 hPa | 0.25 mm | - | - | - |
| 1778036433 | 17.22° C | 93% | 1007.8 hPa | 9.65 mm | - | - | - |
| 1778036110 | 17.22° C | 93% | 1007.5 hPa | 6.1 mm | - | - | - |
| 1778035813 | 16.11° C | 93% | 1008.1 hPa | 6.1 mm | - | - | - |
| 1778035512 | 16.11° C | 93% | 1007.8 hPa | 6.1 mm | - | - | - |
| 1778035215 | 16.11° C | 93% | 1007.8 hPa | 5.84 mm | - | - | - |
| 1778034910 | 16.11° C | 93% | 1008.1 hPa | 5.84 mm | - | - | - |
| 1778034623 | 16.11° C | 93% | 1008.1 hPa | 5.84 mm | - | - | - |
| 1778034310 | 16.11° C | 93% | 1008.1 hPa | 5.84 mm | - | - | - |
| 1778034014 | 16.11° C | 93% | 1008.1 hPa | 5.33 mm | - | - | - |
| 1778033713 | 17.22° C | 93% | 1008.5 hPa | 2.29 mm | - | - | - |
| 1778033415 | 17.22° C | 93% | 1008.1 hPa | 1.78 mm | - | - | - |
* Rain latest hour (hover to see other rain measurements)
** Current wind speed in m/s (hover to see current wind gust speed)